Header for Extended Forecast Station List Page

Search by: ID | Name | Date | Parm | Value | Avg | % Avg
Sort by: ID | Name | Date | Parm | Value | Avg | % Avg

Enter search or view all records.

Click on id for station plot
#IDNameDateParmValueAvg% Avg
0LEOI1KOOTENAI-AT LEONIA05-10-2021DISCHARGE (KAF)3014504160
1FCFM8NF FLATHEAD-NEAR COLUMBIA FALLS05-10-2021DISCHARGE (KAF)944142666
2WGCM8MF FLATHEAD-NEAR WEST GLACIER05-10-2021DISCHARGE (KAF)1155137984
3CFMM8FLATHEAD-AT COLUMBIA FALLS05-10-2021DISCHARGE (KAF)3076358786
4DLGM8CLARK FORK-AT DEER LODGE05-10-2021DISCHARGE (KAF)466471
5DRMM8CLARK FORK-NR DRUMMOND05-10-2021DISCHARGE (KAF)187MM
6RCCM8ROCK CREEK-NEAR CLINTON05-10-2021DISCHARGE (KAF)23023797
7BONM8BLACKFOOT-NEAR BONNER05-10-2021DISCHARGE (KAF)59269585
8ABOM8CLARK FORK-ABOVE MISSOULA05-10-2021DISCHARGE (KAF)1051122985
9BITM8BITTERROOT-NEAR MISSOULA05-10-2021DISCHARGE (KAF)844106379
10BELM8CLARK FORK-BELOW MISSOULA05-10-2021DISCHARGE (KAF)1895232681
11STRM8ST. REGIS-NEAR ST. REGIS05-10-2021DISCHARGE (KAF)12517372
12SRGM8CLARK FORK-AT ST REGIS05-10-2021DISCHARGE (KAF)2367306177
13PRTI1PRIEST-NEAR PRIEST RIVER05-10-2021DISCHARGE (KAF)30658952
14SPOW1SPOKANE-AT SPOKANE05-10-2021DISCHARGE (KAF)962MM
15SATI1ST MARIES-NEAR SANTA05-10-2021DISCHARGE (KAF)356752
16CIBW1COLUMBIA-AT INTL BOUNDARY05-10-2021DISCHARGE (KAF)25137MM
17LAUW1KETTLE-AT LAURIER05-10-2021DISCHARGE (KAF)862134864
18TONW1OKANOGAN-NEAR TONASKET05-10-2021DISCHARGE (KAF)1286129999
19PATW1METHOW-NEAR PATEROS05-10-2021DISCHARGE (KAF)748737102
20ARDW1ENTIAT-NEAR ARDENVOIR05-10-2021DISCHARGE (KAF)196179110
21PESW1WENATCHEE-AT PESHASTIN05-10-2021DISCHARGE (KAF)1176120797
22EASW1YAKIMA-AT EASTON05-10-2021DISCHARGE (KAF)10089112
23TNAW1TEANAWAY-BELOW FORKS05-10-2021DISCHARGE (KAF)7059118
24UMTW1YAKIMA-AT UMTANUM05-10-2021DISCHARGE (KAF)79881598
25CLFW1NACHES-NEAR CLIFFDEL05-10-2021DISCHARGE (KAF)283279101
26NACW1NACHES-NEAR NACHES05-10-2021DISCHARGE (KAF)39840299
27PARW1YAKIMA-NEAR PARKER05-10-2021DISCHARGE (KAF)26231284
28KIOW1YAKIMA-AT KIONA05-10-2021DISCHARGE (KAF)55365185
29CHEI1FALL RIVER-NEAR CHESTER05-10-2021DISCHARGE (KAF)15426558
30ANTI1HENRYS FORK-AT ST. ANTHONY05-10-2021DISCHARGE (KAF)33254161
31TEAI1TETON-NEAR ST. ANTHONY05-10-2021DISCHARGE (KAF)22933568
32REXI1HENRYS FORK-AT REXBURG05-10-2021DISCHARGE (KAF)28762846
33JKSW4SNAKE-NEAR JACKSON05-10-2021DISCHARGE (KAF)1065168563
34ALPW4SNAKE-NEAR ALPINE05-10-2021DISCHARGE (KAF)1265211660
35HEII1SNAKE-NEAR HEISE05-10-2021DISCHARGE (KAF)2785307491
36SIFI1SNAKE-AB EAGLE ROCK NR IDAHO FALLS05-10-2021DISCHARGE (KAF)1612233069
37SHYI1SNAKE-NEAR SHELLEY05-10-2021DISCHARGE (KAF)1442204970
38SNAI1SNAKE-AT BLACKFOOT05-10-2021DISCHARGE (KAF)839151156
39BFTI1SNAKE-NEAR BLACKFOOT05-10-2021DISCHARGE (KAF)795138857
40PIHI1PORTNEUF-AT POCATELLO05-10-2021DISCHARGE (KAF)144532
41MILI1SNAKE-AT MILNER05-10-2021DISCHARGE (KAF)14316786
42HOTI1BRUNEAU-NEAR HOT SPRINGS05-10-2021DISCHARGE (KAF)2012516
43SWAI1SNAKE-BELOW SWAN FALLS05-10-2021DISCHARGE (KAF)1504206573
44HWRI1BIG LOST-AT HOWELL RANCH NEAR CHILLY05-10-2021DISCHARGE (KAF)1815511
45HALI1BIG WOOD-AT HAILEY05-10-2021DISCHARGE (KAF)6720633
46BIGI1BOISE-AT GLENWOOD BRIDGE05-10-2021DISCHARGE (KAF)26538070
47PARI1BOISE-NEAR PARMA05-10-2021DISCHARGE (KAF)23033070
48EMMI1PAYETTE-NEAR EMMETT05-10-2021DISCHARGE (KAF)45696847
49WSRI1WEISER-NEAR WEISER05-10-2021DISCHARGE (KAF)12321457
50WEII1SNAKE-AT WEISER05-10-2021DISCHARGE (KAF)2460382764
51WHBI1SALMON-AT WHITEBIRD05-10-2021DISCHARGE (KAF)2520506450
52TRYO3GRANDE RONDE-TROY05-10-2021DISCHARGE (KAF)60981275
53ANAW1SNAKE-NEAR ANATONE05-10-2021DISCHARGE (KAF)57421055454
54ORFI1CLEARWATER-AT OROFINO05-10-2021DISCHARGE (KAF)2406341171
55SPDI1CLEARWATER-AT SPALDING05-10-2021DISCHARGE (KAF)3955504678
56TCHW1WALLA WALLA-NEAR TOUCHET05-10-2021DISCHARGE (KAF)284267
57GIBO3UMATILLA-NEAR GIBBON05-10-2021DISCHARGE (KAF)3733111
58PDTO3UMATILLA-AT PENDLETON05-10-2021DISCHARGE (KAF)6152117
59MYKO3MCKAY CREEK-NEAR PILOT ROCK05-10-2021DISCHARGE (KAF)4594
60UMAO3UMATILLA-NEAR UMATILLA05-10-2021DISCHARGE (KAF)2817166
61MONO3NF JOHN DAY-AT MONUMENT05-10-2021DISCHARGE (KAF)13428847
62SERO3JOHN DAY-AT SERVICE CK05-10-2021DISCHARGE (KAF)19540149
63MODO3DESCHUTES-AT MOODY NR BIGGS05-10-2021DISCHARGE (KAF)1080119590
64PITW1KLICKITAT-NEAR PITT05-10-2021DISCHARGE (KAF)29835684
65HODO3HOOD-NEAR TUCKER BRIDGE05-10-2021DISCHARGE (KAF)12314983
66UNDW1WHITE SALMON-NEAR UNDERWOOD05-10-2021DISCHARGE (KAF)19324778
67LYDM8KOOTENAI-LIBBY DAM05-10-2021INFLOW (KAF)4376562678
68HHWM8SF FLATHEAD-HUNGRY HORSE DAM05-10-2021INFLOW (KAF)1364159985
69KERM8FLATHEAD-SELI’Š KSANKA QLISPE’ DAM05-10-2021INFLOW (KAF)3455446377
70NOXM8CLARK FORK-NOXON RAPIDS DAM05-10-2021INFLOW (KAF)5784761676
71CABI1CLARK FORK-CABINET GORGE DAM05-10-2021INFLOW (KAF)6359810079
72ALFW1PEND OREILLE-ALBENI FALLS DAM05-10-2021INFLOW (KAF)6895920775
73COEI1COEUR D ALENE-COEUR D ALENE LAKE05-10-2021INFLOW (KAF)962144866
74LLKW1SPOKANE-AT LONGLAKE05-10-2021INFLOW (KAF)1134193059
75GCDW1COLUMBIA-GRAND COULEE DAM05-10-2021INFLOW (KAF)271754083567
76CHJW1COLUMBIA-CHIEF JOSEPH DAM05-10-2021INFLOW (KAF)253463056783
77WELW1COLUMBIA-WELLS DAM05-10-2021INFLOW (KAF)274063298483
78CHDW1CHELAN-LAKE CHELAN DAM05-10-2021INFLOW (KAF)1010906112
79RRHW1COLUMBIA-ROCKY REACH DAM05-10-2021INFLOW (KAF)283483362584
80WANW1COLUMBIA-WANAPUM DAM05-10-2021INFLOW (KAF)295444044873
81PRWW1COLUMBIA-PRIEST RAPIDS DAM05-10-2021INFLOW (KAF)295524134571
82KEDW1YAKIMA-KEECHELUS LAKE05-10-2021INFLOW (KAF)8879112
83KADW1KACHESS-KACHESS DAM05-10-2021INFLOW (KAF)7571105
84CLUW1CLE ELUM-CLE ELUM LAKE05-10-2021INFLOW (KAF)338303112
85BUDW1BUMPING-BUMPING LAKE DAM05-10-2021INFLOW (KAF)879493
86RILW1TIETON-RIMROCK LAKE NEAR RIMROCK05-10-2021INFLOW (KAF)173166104
87IPDI1HENRYS FORK-ISLAND PARK DAM05-10-2021INFLOW (KAF)12420162
88JLKW4SNAKE-JACKSON LAKE AT DAM05-10-2021INFLOW (KAF)42573058
89PLDI1SF SNAKE-PALISADES DAM05-10-2021INFLOW (KAF)1715293658
90RIDI1WILLOW CREEK-RIRIE DAM05-10-2021INFLOW (KAF)82236
91AFRI1SNAKE-AMERICAN FALLS RESERVOIR05-10-2021INFLOW (KAF)1306200465
92MACI1BIG LOST-MACKAY RESERVOIR NEAR MACKAY05-10-2021INFLOW (KAF)1715511
93MAGI1BIG WOOD-MAGIC DAM05-10-2021INFLOW (KAF)2515816
94LWRI1LITTLE WOOD-LITTLE WOOD DAM05-10-2021INFLOW (KAF)65510
95OWYO3OWYHEE-OWYHEE DAM05-10-2021INFLOW (KAF)4213132
96ARAI1SF BOISE-ANDERSON RANCH DAM05-10-2021INFLOW (KAF)12837834
97LUCI1BOISE-LUCKY PEAK DAM05-10-2021INFLOW (KAF)797MM
98WRMO3MALHEUR-WARM SPRINGS DAM05-10-2021INFLOW (KAF)51049
99BERO3MALHEUR-AGENCY VALLEY DAM05-10-2021INFLOW (KAF)121961
100BULO3BULLY CREEK-BULLY CREEK DAM05-10-2021INFLOW (KAF)M0M
101CSDI1NF PAYETTE-CASCADE DAM05-10-2021INFLOW (KAF)19736554
102DEDI1DEADWOOD-NEAR LOWMAN05-10-2021INFLOW (KAF)5411348
103BRNI1SNAKE-BROWNLEE DAM05-10-2021INFLOW (KAF)2656406865
104DWRI1NF CLEARWATER-DWORSHAK DAM05-10-2021INFLOW (KAF)1344184273
105LGDW1SNAKE-LOWER GRANITE DAM05-10-2021INFLOW (KAF)96961560662
106LGSW1SNAKE-LITTLE GOOSE DAM05-10-2021INFLOW (KAF)96961564562
107LMNW1SNAKE-LOWER MONUMENTAL DAM05-10-2021INFLOW (KAF)97481567562
108IHDW1SNAKE-ICE HARBOR DAM05-10-2021INFLOW (KAF)97551559263
109MCDW1COLUMBIA-MCNARY DAM05-10-2021INFLOW (KAF)400395839669
110JDAO3COLUMBIA-JOHN DAY DAM05-10-2021INFLOW (KAF)410625966969
111TDAO3COLUMBIA-THE DALLES DAM05-10-2021INFLOW (KAF)412595337077
112BONO3COLUMBIA-BONNEVILLE DAM05-10-2021INFLOW (KAF)419075458377
113HOPI1PEND OREILLE-PEND OREILLE LAKE NR HOPE05-10-2021LAKE ELEVATION (FT)MMM
114BFEI1KOOTENAI-AT BONNERS FERRY05-10-2021STAGE (FT)MMM
115SJMI1ST JOE-AT ST MARIES05-10-2021STAGE (FT)MMM